Regional Weather Roundup
Issued by NWS

Home | Current Version | Previous Version | Graphics & Text | Print | Product List | Glossary On
Versions: 1 2 3 4 5 6 7 8 9 10 11 12 13 14 15 16 17 18 19 20 21 22 23 24 25 26 27 28 29 30 31 32 33 34 35 36 37 38 39 40 41 42 43 44 45 46 47 48 49 50
000
ASUS45 KBOU 050510
RWRCO

WEATHER ROUNDUP FOR COLORADO
NATIONAL WEATHER SERVICE DENVER/BOULDER CO
1100 PM MDT SAT JUL 04 2015

NOTE: "FAIR" INDICATES FEW OR NO CLOUDS BELOW 12000 FEET WITH NO
SIGNIFICANT WEATHER AND/OR OBSTRUCTIONS TO VISIBILITY.

COZ001>005-013-030-031-050600-
...NORTHWEST COLORADO...

CITY           SKY/WX    TMP DP  RH WIND       PRES   REMARKS
CRAIG          CLOUDY    63  53  70 SE5       30.11R
HAYDEN         MOCLDY    61  48  63 SE8       30.15R
MEEKER         MOCLDY    68  47  46 CALM      30.14R
MOUNT WERNER   NOT AVBL
STEAMBOAT SPGS MOCLDY    61  48  62 CALM      30.17S
WALDEN         CLOUDY    54  45  71 E7        30.26S
$$

COZ006>008-011-050600-
...WEST CENTRAL VALLEYS...

CITY           SKY/WX    TMP DP  RH WIND       PRES   REMARKS
GRAND JUNCTION CLOUDY    80  50  34 E15       30.00R
MONTROSE       CLOUDY    75  51  43 S6        30.12R
EAGLE          CLOUDY    70  46  43 E6        30.17F
RIFLE          MOCLDY    68  58  70 SW3       30.11S
DELTA          CLOUDY    81  52  36 S6        30.07R
NUCLA          LGT RAIN  70  52  52 SW10G17   30.22R
$$

COZ017>023-064>068-050600-
...SOUTHWEST COLORADO...

CITY           SKY/WX    TMP DP  RH WIND       PRES   REMARKS
DURANGO        CLOUDY    60  57  89 CALM      30.24F
CORTEZ         CLOUDY    68  54  60 N8        30.19R
PAGOSA SPRINGS CLOUDY    59  56  92 N6        30.33S
TELLURIDE      CLOUDY    60  49  66 SE6       30.41S
WOLF CREEK PAS NOT AVBL
$$

COZ009-010-012-014-032>034-037-058>063-050600-
...CENTRAL COLORADO...

CITY           SKY/WX    TMP DP  RH WIND       PRES   REMARKS
ASPEN          CLOUDY    60  50  69 SW6       30.29R
BUENA VISTA    MOCLDY    56  48  73 NW3       30.30S
COPPER MTN     CLOUDY    55  37  50 S14       30.60S
BERTHOUD PASS  FAIR      45  34  65 MISG      30.64S
COTTONWOOD PAS NOT AVBL
GUNNISON       CLOUDY    64  45  48 CALM      30.32R
KREMMLING      MOCLDY    64  41  42 S3        30.24R
LEADVILLE      CLOUDY    51  46  83 NE5       30.43S
SALIDA         MOCLDY    66  51  58 NW10G17   30.33S
SUNLIGHT       CLOUDY    54  45  71 CALM      30.53S
WILKERSON PASS CLOUDY    52  41  66 W7        30.56S
$$

COZ069>075-050600-
...SAN LUIS VALLEY/SANGRE DE CRISTO MOUNTAINS...

CITY           SKY/WX    TMP DP  RH WIND       PRES   REMARKS
ALAMOSA        MOCLDY    59  49  69 W8        30.28R
LA VETA PASS   MOCLDY    46  41  81 MISG      30.44F
SAGUACHE       CLOUDY    59  50  72 NW15      30.33F
$$

COZ035-036-038>040-050600-
...NORTHERN COLORADO FRONT RANGE...

CITY           SKY/WX    TMP DP  RH WIND       PRES   REMARKS
DENVER INTL AP MOCLDY    74  49  41 SW13      30.02R
DMNS CITY PARK   N/A     74  49  41 E5G12     30.01R
AURORA         MOCLDY    71  50  46 S8        30.05R
FRONT RANGE AP NOT AVBL
ERIE MUNI ARPT MOCLDY    72  48  42 SW3       29.99S
BOULDER MUN AP MOCLDY    77  45  31 W13G23    29.98S
CENTENNIAL     CLOUDY    74  48  39 SW10      30.06F
BROOMFIELD     NOT AVBL
FORT COLLINS   MOCLDY    66  55  68 E6        30.00R
LONGMONT       MOCLDY    75  48  38 E8        29.99S
$$

COZ041-046-047-076>085-087-088-050600-
...PIKES PEAK/PALMER DIVIDE AND SOUTHERN FOOTHILLS...

CITY           SKY/WX    TMP DP  RH WIND       PRES   REMARKS
COLO. SPRINGS  MOCLDY    69  49  48 NW3       30.10S
A. F. ACADEMY  MOCLDY    60  52  72 N7        30.12S
ELLICOTT       MOCLDY     1  32 100 CALM      30.08R
FALCON         MOCLDY    63  50  61 NW3       30.16R
FORT CARSON    MOCLDY    66  52  60 N6        30.07R
LIMON          MOCLDY    67  54  63 CALM      30.04R
MONUMENT HILL  NOT AVBL
TRINIDAD       PTCLDY    67  52  58 SW9       30.09S
$$

COZ042>045-048>051-090-091-050600-
...NORTHEAST COLORADO...

CITY           SKY/WX    TMP DP  RH WIND       PRES   REMARKS
GREELEY ARPT   MOCLDY    72  54  53 SW9       29.97R
AKRON          PTCLDY    73  53  49 SW14      29.96R
BURLINGTON     CLOUDY    75  57  53 SW10      29.96R
WRAY           MOCLDY    80  62  53 SE16G22   29.90R
STERLING       PTCLDY    77  55  47 SW13        N/A
HOLYOKE        MOCLDY    81  63  54 S15       29.91R
FORT MORGAN    PTCLDY    71  50  48 W9        29.95S
$$

COZ086-089-092>099-050600-
...SOUTHEAST COLORADO...

CITY           SKY/WX    TMP DP  RH WIND       PRES   REMARKS
PUEBLO         MOCLDY    76  54  46 W5        29.98R
LA JUNTA       MOCLDY    75  53  46 SW8       29.95R
LAMAR          MOCLDY    79  57  46 SW16      29.90R
SPRINGFIELD      N/A     69  61  75 S15       29.98F
$$


USA.gov is the U.S. government's official web portal to all federal, state and local government web resources and services.